Location: Newark
(47.5575°N, 10.7497°E)
Time: 17:47:16
(UTC+00:00)

N. Korean satellite - Visible Passes

Search period start: 22 September 2020 00:00
Search period end: 02 October 2020 00:00
Orbit: 455 x 503 km, 97.2° (Epoch: 21 September)

Date Brightness Start Highest point End Pass type
(mag) Time Alt. Az. Time Alt. Az. Time Alt. Az.
24 Sep 9.3 04:12:51 10° NE 04:15:55 24° E 04:18:55 10° SSE visible
25 Sep 10.0 03:47:56 10° ENE 03:49:40 13° E 03:51:24 10° ESE visible
27 Sep 8.4 04:27:53 10° NNE 04:31:18 36° E 04:34:38 10° SSE visible
28 Sep 9.7 04:02:29 10° NE 04:05:07 19° E 04:07:42 10° SE visible
01 Oct 9.0 04:17:21 10° NE 04:20:29 27° E 04:23:34 10° SSE visible
